User: anonymous   Login
Location: Piotrkow Trybunalski
(51.4000°N, 19.6830°E)
Time: 17:51:10
(UTC+01:00)
Language:

Transit 4A - Orbit

View from above orbital plane
View from above orbital plane
View from above satellite
View from above satellite

Ground track
Ground track

The orbit data is extracted from the following two-line orbital elements,

1 00116U 61015A   24052.70475475  .00000104  00000-0  13842-3 0  9999
2 00116  66.8101 161.6291 0071844 151.1015 209.4073 13.92002119178870
Epoch (UTC): 21 February 2024 16:54:50
Eccentricity: 0.0071844
inclination: 66.8101°
perigee height: 869 km
apogee height: 974 km
right ascension of ascending node: 161.6291°
argument of perigee: 151.1015°
revolutions per day: 13.92002119
mean anomaly at epoch: 209.4073°
orbit number at epoch: 17887

The dashed part of the orbit path shows where the satellite is in the earth's shadow,  

DLR